When you browse on this site, cookies collect data to enhance your experience and personalize the content and advertising you see.
Visit our Privacy Policy to learn more. By continuing to use the site, you agree to this use of cookies and data.
  • în România
  • Lista ţărilor
  • Pe 7 zile
  • Temperatura apei
  • Hartă satelitară
  • Meteo pe hartă
  • Widget-uri
  • user-avatar
    Intrare

    Meteo pe oră la Repnoe

    Astăzi, 17 Noiembrie, Sâmbătă

    Timp Temperatura Precipitaţii Vânt Presiune Umiditate
    00:00 -5°C° 0 mm 3 m/s 766 mmHg 29%
    01:00 -6°C° 0 mm 3 m/s 766 mmHg 29%
    02:00 -5°C° 0 mm 2 m/s 765 mmHg 29%
    03:00 -5°C° 0 mm 2 m/s 765 mmHg 29%
    04:00 -5°C° 0 mm 2 m/s 765 mmHg 29%
    05:00 -5°C° 0 mm 2 m/s 765 mmHg 28%
    06:00 -5°C° 0 mm 2 m/s 765 mmHg 28%
    07:00 -5°C° 0 mm 2 m/s 764 mmHg 28%
    08:00 -4°C° 0 mm 2 m/s 764 mmHg 27%
    09:00 -4°C° 0 mm 2 m/s 764 mmHg 26%
    10:00 -1°C° 0 mm 1 m/s 764 mmHg 24%
    11:00 0°C° 0 mm 1 m/s 763 mmHg 21%
    12:00 +2°C° 0 mm 1 m/s 763 mmHg 19%
    13:00 +2°C° 0 mm 1 m/s 763 mmHg 21%
    14:00 +2°C° 0 mm 1 m/s 762 mmHg 22%
    15:00 +2°C° 0 mm 1 m/s 762 mmHg 24%
    16:00 +1°C° 0 mm 1 m/s 761 mmHg 25%
    17:00 0°C° 0 mm 1 m/s 761 mmHg 25%
    18:00 -1°C° 0 mm 1 m/s 760 mmHg 26%
    19:00 -1°C° 0 mm 1 m/s 760 mmHg 26%
    20:00 -1°C° 0 mm 1 m/s 759 mmHg 26%
    21:00 -1°C° 0 mm 1 m/s 759 mmHg 25%
    22:00 -3°C° 0 mm 2 m/s 758 mmHg 25%
    23:00 -4°C° 0 mm 2 m/s 758 mmHg 26%

    Mâine, 18 Noiembrie, Duminică

    Timp Temperatura Precipitaţii Vânt Presiune Umiditate
    00:00 -4°C° 0 mm 2 m/s 757 mmHg 26%
    01:00 -5°C° 0 mm 3 m/s 756 mmHg 26%
    02:00 -5°C° 0 mm 3 m/s 756 mmHg 27%
    03:00 -5°C° 0 mm 3 m/s 755 mmHg 27%
    04:00 -5°C° 0 mm 3 m/s 755 mmHg 28%
    05:00 -6°C° 0 mm 3 m/s 754 mmHg 29%
    06:00 -6°C° 0 mm 3 m/s 753 mmHg 30%
    07:00 -6°C° 0 mm 3 m/s 753 mmHg 30%
    08:00 -5°C° 0 mm 3 m/s 753 mmHg 30%
    09:00 -5°C° 0 mm 3 m/s 753 mmHg 30%
    10:00 -4°C° 0 mm 3 m/s 752 mmHg 29%
    11:00 -2°C° 0 mm 3 m/s 752 mmHg 29%
    12:00 -1°C° 0 mm 3 m/s 752 mmHg 28%
    13:00 -1°C° 0 mm 3 m/s 752 mmHg 30%
    14:00 -1°C° 0 mm 3 m/s 752 mmHg 32%
    15:00 -1°C° 0 mm 2 m/s 751 mmHg 34%
    16:00 -1°C° 0 mm 2 m/s 751 mmHg 37%
    17:00 -2°C° 0 mm 2 m/s 751 mmHg 40%
    18:00 -3°C° 0 mm 2 m/s 751 mmHg 43%
    19:00 -3°C° 0 mm 2 m/s 751 mmHg 44%
    20:00 -3°C° 0 mm 2 m/s 752 mmHg 45%
    21:00 -4°C° 0 mm 2 m/s 752 mmHg 46%
    22:00 -4°C° 0 mm 2 m/s 752 mmHg 47%
    23:00 -4°C° 0 mm 2 m/s 752 mmHg 48%

    Poimâine, 19 Noiembrie, Luni

    Timp Temperatura Precipitaţii Vânt Presiune Umiditate
    00:00 -2°C° 0 mm 1 m/s 752 mmHg 48%
    01:00 -2°C° 0 mm 1 m/s 752 mmHg 49%
    02:00 -2°C° 0 mm 1 m/s 753 mmHg 49%
    03:00 -2°C° 0 mm 1 m/s 753 mmHg 49%
    04:00 -3°C° 0 mm 1 m/s 753 mmHg 50%
    05:00 -3°C° 0 mm 1 m/s 753 mmHg 50%
    06:00 -3°C° 0 mm 1 m/s 753 mmHg 51%
    07:00 -3°C° 0 mm 1 m/s 754 mmHg 50%
    08:00 -2°C° 0 mm 1 m/s 754 mmHg 49%
    09:00 -2°C° 0 mm 1 m/s 755 mmHg 48%
    10:00 -1°C° 0 mm 1 m/s 755 mmHg 45%
    11:00 0°C° 0 mm 1 m/s 755 mmHg 41%
    12:00 -1°C° 0 mm 2 m/s 756 mmHg 38%
    13:00 +1°C° 0 mm 1 m/s 756 mmHg 39%
    14:00 +2°C° 0 mm 1 m/s 756 mmHg 40%
    15:00 +2°C° 0 mm 1 m/s 756 mmHg 41%
    16:00 -1°C° 0 mm 2 m/s 756 mmHg 44%
    17:00 -2°C° 0 mm 2 m/s 756 mmHg 47%
    18:00 -3°C° 0 mm 2 m/s 756 mmHg 50%
    19:00 -3°C° 0 mm 2 m/s 757 mmHg 50%
    20:00 -3°C° 0 mm 2 m/s 757 mmHg 51%
    21:00 -3°C° 0 mm 2 m/s 757 mmHg 52%
    22:00 -3°C° 0 mm 2 m/s 757 mmHg 50%
    23:00 -3°C° 0 mm 2 m/s 757 mmHg 49%

    20 Noiembrie, Marţi

    Timp Temperatura Precipitaţii Vânt Presiune Umiditate
    00:00 -3°C° 0 mm 2 m/s 758 mmHg 48%
    01:00 -3°C° 0 mm 2 m/s 758 mmHg 47%
    02:00 -3°C° 0 mm 2 m/s 758 mmHg 46%
    03:00 -4°C° 0 mm 3 m/s 758 mmHg 46%
    04:00 -4°C° 0 mm 3 m/s 758 mmHg 44%
    05:00 -4°C° 0 mm 3 m/s 758 mmHg 43%
    06:00 -3°C° 0 mm 2 m/s 758 mmHg 41%
    07:00 -4°C° 0 mm 3 m/s 758 mmHg 41%
    08:00 -4°C° 0 mm 3 m/s 758 mmHg 40%
    09:00 -2°C° 0 mm 3 m/s 758 mmHg 39%
    10:00 -2°C° 0 mm 3 m/s 758 mmHg 44%
    11:00 -2°C° 0 mm 3 m/s 758 mmHg 50%
    12:00 -1°C° 0 mm 3 m/s 757 mmHg 55%
    13:00 -1°C° 0 mm 3 m/s 757 mmHg 55%
    14:00 -1°C° 0 mm 3 m/s 757 mmHg 55%
    15:00 -1°C° 0 mm 3 m/s 756 mmHg 56%
    16:00 -1°C° 0 mm 3 m/s 756 mmHg 54%
    17:00 -1°C° 0 mm 3 m/s 756 mmHg 52%
    18:00 -2°C° 0 mm 3 m/s 756 mmHg 50%
    19:00 -2°C° 0 mm 3 m/s 755 mmHg 53%
    20:00 -2°C° 0 mm 3 m/s 755 mmHg 56%
    21:00 -2°C° 0 mm 3 m/s 755 mmHg 60%
    22:00 -4°C° 0 mm 3 m/s 755 mmHg 66%
    23:00 -3°C° 0 mm 2 m/s 754 mmHg 72%

    21 Noiembrie, Miercuri

    Timp Temperatura Precipitaţii Vânt Presiune Umiditate
    00:00 -3°C° 0 mm 2 m/s 754 mmHg 78%
    01:00 -3°C° 0 mm 2 m/s 754 mmHg 81%
    02:00 -3°C° 0 mm 2 m/s 754 mmHg 84%
    03:00 -3°C° 0 mm 2 m/s 753 mmHg 86%
    04:00 -3°C° 0 mm 2 m/s 753 mmHg 87%
    05:00 -3°C° 0 mm 2 m/s 753 mmHg 88%
    06:00 -3°C° 0 mm 2 m/s 752 mmHg 89%
    07:00 -1°C° 0 mm 1 m/s 752 mmHg 89%
    08:00 -1°C° 0 mm 1 m/s 752 mmHg 89%
    09:00 -1°C° 0 mm 1 m/s 752 mmHg 90%
    10:00 0°C° 0 mm 1 m/s 752 mmHg 86%
    11:00 0°C° 0 mm 1 m/s 752 mmHg 83%
    12:00 +1°C° 0 mm 1 m/s 752 mmHg 80%
    13:00 +1°C° 0 mm 1 m/s 752 mmHg 80%
    14:00 +1°C° 0 mm 1 m/s 751 mmHg 81%
    15:00 -1°C° 0 mm 2 m/s 751 mmHg 81%
    16:00 -1°C° 0 mm 2 m/s 751 mmHg 84%
    17:00 -2°C° 0 mm 2 m/s 751 mmHg 87%
    18:00 -3°C° 0 mm 2 m/s 751 mmHg 89%
    19:00 -3°C° 0 mm 2 m/s 751 mmHg 89%
    20:00 -3°C° 0 mm 2 m/s 751 mmHg 89%
    21:00 -3°C° 0 mm 2 m/s 751 mmHg 89%
    22:00 -3°C° 0 mm 2 m/s 751 mmHg 88%
    23:00 -3°C° 0 mm 2 m/s 751 mmHg 88%

    22 Noiembrie, Joi

    Timp Temperatura Precipitaţii Vânt Presiune Umiditate
    00:00 -3°C° 0 mm 2 m/s 751 mmHg 87%
    01:00 -3°C° 0 mm 2 m/s 751 mmHg 86%
    02:00 -3°C° 0 mm 2 m/s 751 mmHg 86%
    03:00 -3°C° 0 mm 2 m/s 750 mmHg 85%
    04:00 -4°C° 0 mm 3 m/s 750 mmHg 85%
    05:00 -5°C° 0 mm 3 m/s 750 mmHg 84%
    06:00 -5°C° 0 mm 3 m/s 750 mmHg 84%
    07:00 -5°C° 0 mm 3 m/s 751 mmHg 83%
    08:00 -5°C° 0 mm 3 m/s 751 mmHg 83%
    09:00 -5°C° 0 mm 4 m/s 751 mmHg 82%
    10:00 -4°C° 0 mm 4 m/s 751 mmHg 78%
    11:00 -4°C° 0 mm 4 m/s 751 mmHg 74%
    12:00 -3°C° 0 mm 4 m/s 751 mmHg 70%
    13:00 -2°C° 0 mm 3 m/s 751 mmHg 70%
    14:00 -2°C° 0 mm 3 m/s 751 mmHg 69%
    15:00 -2°C° 0 mm 3 m/s 751 mmHg 68%
    16:00 -4°C° 0 mm 3 m/s 751 mmHg 72%
    17:00 -4°C° 0 mm 3 m/s 751 mmHg 76%
    18:00 -5°C° 0 mm 3 m/s 752 mmHg 79%
    19:00 -5°C° 0 mm 3 m/s 752 mmHg 80%
    20:00 -6°C° 0 mm 3 m/s 752 mmHg 80%
    21:00 -6°C° 0 mm 3 m/s 752 mmHg 81%
    22:00 -5°C° 0 mm 2 m/s 752 mmHg 81%
    23:00 -5°C° 0 mm 2 m/s 753 mmHg 80%
    Arată mai mult